Location: Hains Lake
(37.8540°N, 99.8578°W)
Time: 03:38:26
(UTC+00:00)

Vanguard 1 - Pass Details

Date: 06 December 2021
Orbit: 652 x 3830 km, 34.2° (Epoch: 21 January)

Event Time Altitude Azimuth Distance (km) Brightness Sun altitude
Exits shadow 12:46:18 10° 279° (W) 6,454 13.6 -10.7°
Maximum altitude 13:02:08 34° 225° (SW) 3,675 12.8 -7.8°
Drops below altitude 10° 13:12:25 10° 166° (SSE) 4,131 13.8 -5.9°
Sets 13:15:29 0° 156° (SSE) 4,746 14.4 -5.4°
